Regional Weather Roundup
Issued by NWS

Home | Current Version | Previous Version | Graphics & Text | Print | Product List | Glossary On
Versions: 1 2 3 4 5 6 7 8 9 10 11 12 13 14 15 16 17 18 19 20 21 22 23 24 25 26 27 28 29 30 31 32 33 34 35 36 37 38 39 40 41 42 43 44 45 46 47 48 49 50
000
ASUS43 KMKX 191811
RWRWI

WISCONSIN REGIONAL WEATHER ROUNDUP
NATIONAL WEATHER SERVICE MILWAUKEE/SULLIVAN WI
100 PM CDT SAT AUG 19 2017

NOTE: "FAIR" INDICATES FEW OR NO CLOUDS BELOW 12,000 FEET WITH NO
SIGNIFICANT WEATHER AND/OR OBSTRUCTIONS TO VISIBILITY.

WIZ001-002-006>008-014>016-023>028-191900-
NORTHWEST WISCONSIN

CITY           SKY/WX    TMP DP  RH WIND       PRES   REMARKS
SUPERIOR ARPT    N/A     79  62  55 W9        29.88F HX  81
6HR MIN TEMP:  56; 6HR MAX TEMP:  79;

ASHLAND        SUNNY     79  62  56 W9        29.89F HX  80
6HR MIN TEMP:  59; 6HR MAX TEMP:  79;

HAYWARD        MOSUNNY   77  59  53 W8G20     29.93F
6HR MIN TEMP:  56; 6HR MAX TEMP:  77;

SIREN          MOSUNNY   76  61  59 SW7       29.93F
6HR MIN TEMP:  53; 6HR MAX TEMP:  76;

CUMBERLAND     SUNNY     73  59  60 SW5       29.95F
RICE LAKE      SUNNY     75  58  54 W10       29.96F
6HR MIN TEMP:  53; 6HR MAX TEMP:  75;

CHETEK         MOSUNNY   77  62  61 MISG      29.95S
6HR MIN TEMP:  55; 6HR MAX TEMP:  77;

LADYSMITH      SUNNY     76  59  55 W9        29.96F
6HR MIN TEMP:  56; 6HR MAX TEMP:  77;

EAU CLAIRE     SUNNY     77  57  50 SW10      29.94F
6HR MIN TEMP:  57; 6HR MAX TEMP:  77;

MENOMONIE      SUNNY     77  60  55 SW6       29.95F
6HR MIN TEMP:  55; 6HR MAX TEMP:  78;

NEW RICHMOND   MOSUNNY   76  59  55 S5        29.95F
6HR MIN TEMP:  56; 6HR MAX TEMP:  76;

OSCEOLA        SUNNY     77  60  55 W8        29.97F
6HR MIN TEMP:  53; 6HR MAX TEMP:  77;

$$

WIZ003>005-009-010-017-018-191900-
NORTH CENTRAL WISCONSIN

CITY           SKY/WX    TMP DP  RH WIND       PRES   REMARKS
MANITOWISH WTR PTSUNNY   77  58  52 W9G16     29.91F
6HR MIN TEMP:  51; 6HR MAX TEMP:  77;

ARBOR VITAE    SUNNY     77  60  55 W10G16    29.92F
6HR MIN TEMP:  57; 6HR MAX TEMP:  77;

WOODRUFF       SUNNY     77  60  55 W10G16    29.92F
6HR MIN TEMP:  57; 6HR MAX TEMP:  77;

RHINELANDER    PTSUNNY   78  59  51 W10       29.93F
6HR MIN TEMP:  59; 6HR MAX TEMP:  78;

EAGLE RIVER    MOSUNNY   75  57  52 SW12      29.91F
6HR MIN TEMP:  56; 6HR MAX TEMP:  76;

LAND O LAKES   SUNNY     75  56  50 W7        29.93S
6HR MIN TEMP:  57; 6HR MAX TEMP:  76;

PHILLIPS       MOSUNNY   75  62  62 SW7       29.93F
6HR MIN TEMP:  58; 6HR MAX TEMP:  75;

TOMAHAWK         N/A     75  56  52 W8G16     29.94F
6HR MIN TEMP:  58; 6HR MAX TEMP:  75;

MEDFORD        SUNNY     73  59  60 W9        29.95F
6HR MIN TEMP:  58; 6HR MAX TEMP:  73;

MERRILL        NOT AVBL
$$

WIZ029-030-035-036-043>047-191900-
CENTRAL WISCONSIN

CITY           SKY/WX    TMP DP  RH WIND       PRES   REMARKS
WAUSAU         MOSUNNY   77  58  51 W13       29.93F
6HR MIN TEMP:  61; 6HR MAX TEMP:  78;

MOSINEE        MOSUNNY   75  61  60 W8        29.96F
MARSHFIELD     SUNNY     77  57  50 W10       29.95F
6HR MIN TEMP:  57; 6HR MAX TEMP:  77;

STEVENS POINT  SUNNY     75  56  51 W9G16     29.96S
6HR MIN TEMP:  58; 6HR MAX TEMP:  75;

WAUPACA        SUNNY     82  58  44 W9G17     29.94S HX  81
6HR MIN TEMP:  66; 6HR MAX TEMP:  82;

WAUTOMA        SUNNY     79  59  50 NW13      29.95F HX  80
6HR MIN TEMP:  59; 6HR MAX TEMP:  80;

WISC RAPIDS    MOSUNNY   79  60  52 NW13      29.96F HX  80
6HR MIN TEMP:  58; 6HR MAX TEMP:  80;

CAMP DOUGLAS   MOSUNNY   79  59  50 W10       29.96S HX  80
$$

WIZ011>013-019>022-031-037>040-048>050-191900-
NORTHEAST WISCONSIN

CITY           SKY/WX    TMP DP  RH WIND       PRES   REMARKS
ANTIGO         MOSUNNY   75  59  58 W8        29.95S
6HR MIN TEMP:  60; 6HR MAX TEMP:  75;

SHAWANO        SUNNY     81  58  46 W7        29.92S HX  81
6HR MIN TEMP:  65; 6HR MAX TEMP:  81;

OCONTO         SUNNY     79  62  54 W10G16    29.89S HX  80
6HR MIN TEMP:  59; 6HR MAX TEMP:  79;

STURGEON BAY   SUNNY     76  65  68 W10       29.90
6HR MIN TEMP:  60; 6HR MAX TEMP:  76;

GREEN BAY      SUNNY     79  64  60 SW10      29.91F HX  81
6HR MIN TEMP:  62; 6HR MAX TEMP:  79;

MANITOWOC      SUNNY     78  62  57 W9        29.92F HX  80
6HR MIN TEMP:  62; 6HR MAX TEMP:  78;

APPLETON       MOSUNNY   79  55  44 W13       29.93S
CLINTONVILLE   SUNNY     79  54  41 W12       29.92F
OSHKOSH        SUNNY     77  62  59 VRB7      29.93F
6HR MIN TEMP:  64; 6HR MAX TEMP:  78;

$$

WIZ032>034-041-042-053>061-191900-
SOUTHWEST WISCONSIN

CITY           SKY/WX    TMP DP  RH WIND       PRES   REMARKS
LA CROSSE      SUNNY     79  57  46 VRB6      29.96F HX  80
6HR MIN TEMP:  60; 6HR MAX TEMP:  80;

SPARTA         SUNNY     76  56  51 SW5       29.97F
6HR MIN TEMP:  53; 6HR MAX TEMP:  76;

VIROQUA        SUNNY     74  60  60 SW3       29.99F
6HR MIN TEMP:  58; 6HR MAX TEMP:  74;

BOSCOBEL       SUNNY     81  53  37 VRB5      29.97F HX  80
6HR MIN TEMP:  58; 6HR MAX TEMP:  81;

PRAIRIE DU CHI SUNNY     77  56  49 E3        29.97S
6HR MIN TEMP:  57; 6HR MAX TEMP:  78;

PLATTEVILLE    SUNNY     76  62  62 CALM      29.99F
6HR MIN TEMP:  54; 6HR MAX TEMP:  76;

$$

WIZ056-057-062-063-064-067-068-191900-
SOUTH CENTRAL WISCONSIN

CITY           SKY/WX    TMP DP  RH WIND       PRES   REMARKS
REEDSBURG      MOSUNNY   79  60  52 W9        29.96F HX  80
6HR MIN TEMP:  54; 6HR MAX TEMP:  79;

BARABOO/DELLS  MOSUNNY   78  58  48 W7        29.97S
6HR MIN TEMP:  58; 6HR MAX TEMP:  79;

LONE ROCK      SUNNY     79  59  50 W7        29.96F HX  80
6HR MIN TEMP:  58; 6HR MAX TEMP:  79;

MINERAL POINT  SUNNY     79  61  53 W6        29.99F HX  80
MADISON        MOSUNNY   77  62  59 VRB6      29.97S
6HR MIN TEMP:  58; 6HR MAX TEMP:  77;

MIDDLETON      SUNNY     78  60  52 CALM      29.98S
6HR MIN TEMP:  58; 6HR MAX TEMP:  79;

WATERTOWN      MOSUNNY   76  65  70 NW6       29.97S
6HR MIN TEMP:  60; 6HR MAX TEMP:  76;

MONROE         SUNNY     77  59  53 W6        29.98F
JANESVILLE     MOSUNNY   77  61  57 CALM      29.97
$$

WIZ051-052-058>065-066-070>072-191900-
SOUTHEAST WISCONSIN

CITY           SKY/WX    TMP DP  RH WIND       PRES   REMARKS
MILWAUKEE      MOSUNNY   80  58  46 NW8       29.95F HX  80
6HR MIN TEMP:  65; 6HR MAX TEMP:  81;

WAUKESHA       MOSUNNY   72  61  68 NW6       29.98F
MILWAUKEE/TIMM MOSUNNY   77  57  50 W5        29.97S
RACINE         SUNNY     78  60  53 W6        29.97F
6HR MIN TEMP:  63; 6HR MAX TEMP:  79;

KENOSHA        SUNNY     78  59  51 SW5       29.97S
6HR MIN TEMP:  61; 6HR MAX TEMP:  78;

FOND DU LAC    SUNNY     78  60  53 NW8       29.94F
6HR MIN TEMP:  63; 6HR MAX TEMP:  79;

SHEBOYGAN      SUNNY     78  63  59 W9        29.93F HX  80
6HR MIN TEMP:  62; 6HR MAX TEMP:  78;

WEST BEND      MOSUNNY   75  61  60 W8        29.96S
JUNEAU         SUNNY     74  61  63 W6        29.97S
6HR MIN TEMP:  61; 6HR MAX TEMP:  75;

$$

LSZ147-162-191900-
LAKE SUPERIOR

STATION/POSITION TIME  TEMP    WIND        PRES    WAVE
                       AIR SEA DIR/SP/G            HT/PER
                 (UTC) (F)     (DEG/KT/KT) (MB)    (FT/S)
W MID LAKE BUOY  1750   61 59  240/ 12/ 14 1010.5F   2/ 4
DEVILS ISLAND    1800   64     230/ 11/ 14 1011.3F
SAXON HARBOR     1730   76     280/  4/  7 1011.5S
$$

LMZ867-665-643>646-191900-
LAKE MICHIGAN

STATION/POSITION TIME  TEMP    WIND        PRES    WAVE
                       AIR SEA DIR/SP/G            HT/PER
                 (UTC) (F)     (DEG/KT/KT) (MB)    (FT/S)
S GREEN BAY BUOY 1800   73     220/  8/ 10 1012.2
N MID LAKE BUOY  1750   67 67  230/ 10/ 14 1012.4R   1/ 3
NORTHPORT PIER   1740   75     260/  3/ 10 1011.5F
KEWAUNEE LAKESHO 1


USA.gov is the U.S. government's official web portal to all federal, state and local government web resources and services.